Greenville, SC

9:59 AM EST on December 09, 2016 (GMT -0500)
Donaldson Center

Weather History for KGYH - December, 2012

Change the Weather History Date:

Saturday, December 8, 2012

  Actual Average (KGMU) Record (KGMU)
Temperature  
Mean Temperature 56 °F -  
Max Temperature 69 °F 53 °F 73 °F (1998)
Min Temperature 42 °F 36 °F 19 °F (2006)
Degree Days  
Heating Degree Days 10    
Growing Degree Days 6 (Base 50)    
Moisture  
Dew Point 50 °F    
Average Humidity 94    
Maximum Humidity 100    
Minimum Humidity 56    
Precipitation  
Precipitation 0.00 in - - ()
Sea Level Pressure  
Sea Level Pressure 30.04 in    
Wind  
Wind Speed 2 mph (WSW)    
Max Wind Speed 12 mph    
Max Gust Speed 17 mph    
Visibility 6 miles    
Events Rain    
Averages and records for this station are not official NWS values.
T = Trace of Precipitation, MM = Missing Value Source: NWS Daily Summary

Daily Weather History Graph

Daily Weather History Graph

Search for Another Location

Airport or City:

Trip Planner

Search our weather history database for the weather conditions in past years. The results will help you decide how hot, cold, wet, or windy it might be!

Date:

Astronomy

Dec. 08, 2012 Rise Set
Actual Time 7:24 AM EST 5:18 PM EST
Civil Twilight 6:56 AM EST 5:46 PM EST
Nautical Twilight 6:25 AM EST 6:17 PM EST
Astronomical Twilight 5:54 AM EST 6:48 PM EST
Moon 1:58 AM EST (12/8) 1:38 PM EST (12/8)
Length of Visible Light 10h 49m
Length of Day
9h 53m
Waning Crescent, 28% of the Moon is Illuminated
Dec 8
Waning Crescent
Dec 13
New
Dec 20
First Quarter
Dec 28
Full
Jan 4
Last Quarter

Hourly Weather History & Observations

Time (EST) Temp. Windchill Dew Point Humidity Pressure Visibility Wind Dir Wind Speed Gust Speed Precip Events Conditions
12:15 AM 42.8 °F - 42.8 °F 100% 30.05 in 7.0 mi Calm Calm - N/A   Clear
12:35 AM 42.8 °F - 42.8 °F 100% 30.04 in 7.0 mi Calm Calm - N/A   Clear
12:55 AM 44.6 °F - 44.6 °F 100% 30.04 in 7.0 mi Calm Calm - N/A   Clear
1:15 AM 46.4 °F 45.2 °F 44.6 °F 93% 30.04 in 10.0 mi West 3.5 mph - N/A   Clear
1:35 AM 44.6 °F - 44.6 °F 100% 30.04 in 7.0 mi Calm Calm - N/A   Scattered Clouds
1:55 AM 42.8 °F - 42.8 °F 100% 30.03 in 5.0 mi Calm Calm - N/A   Scattered Clouds
2:15 AM 44.6 °F - 42.8 °F 93% 30.03 in 7.0 mi Calm Calm - N/A   Mostly Cloudy
2:35 AM 44.6 °F 43.1 °F 44.6 °F 100% 30.03 in 5.0 mi West 3.5 mph - N/A   Scattered Clouds
2:55 AM 44.6 °F 43.1 °F 44.6 °F 100% 30.02 in 4.0 mi WSW 3.5 mph - N/A   Clear
3:15 AM 44.6 °F - 44.6 °F 100% 30.02 in 3.0 mi Calm Calm - N/A   Scattered Clouds
3:35 AM 44.6 °F - 44.6 °F 100% 30.02 in 4.0 mi Calm Calm - N/A   Mostly Cloudy
3:55 AM 46.4 °F 44.3 °F 46.4 °F 100% 30.02 in 5.0 mi WSW 4.6 mph - N/A   Overcast
4:15 AM 46.4 °F 45.2 °F 46.4 °F 100% 30.03 in 5.0 mi WSW 3.5 mph - N/A   Mostly Cloudy
4:35 AM 46.4 °F - 46.4 °F 100% 30.01 in 5.0 mi Calm Calm - N/A   Mostly Cloudy
4:55 AM 46.4 °F - 46.4 °F 100% 30.01 in 5.0 mi Calm Calm - N/A   Scattered Clouds
5:15 AM 46.4 °F 45.2 °F 44.6 °F 93% 30.01 in 4.0 mi West 3.5 mph - N/A   Clear
5:35 AM 44.6 °F 43.1 °F 44.6 °F 100% 30.01 in 4.0 mi WSW 3.5 mph - N/A   Clear
6:47 AM 46.4 °F 45.2 °F 46.4 °F 100% 30.04 in 3.0 mi West 3.5 mph - N/A   Clear
6:54 AM 46.4 °F 44.3 °F 46.4 °F 100% 30.04 in 1.0 mi West 4.6 mph - N/A   Mostly Cloudy
7:47 AM 46.4 °F 45.2 °F 46.4 °F 100% 30.05 in 2.0 mi West 3.5 mph - N/A   Scattered Clouds
8:47 AM 48.2 °F - 48.2 °F 100% 30.05 in 3.0 mi WSW 3.5 mph - N/A   Clear
9:47 AM 53.6 °F - 51.8 °F 94% 30.06 in 7.0 mi WSW 5.8 mph - N/A   Clear
10:47 AM 60.8 °F - 53.6 °F 77% 30.07 in 10.0 mi SW 10.4 mph - N/A   Clear
11:47 AM 64.4 °F - 53.6 °F 68% 30.04 in 10.0 mi WSW 8.1 mph 17.3 mph N/A   Clear
12:47 PM 66.2 °F - 53.6 °F 64% 30.02 in 10.0 mi SW 10.4 mph - N/A   Scattered Clouds
1:47 PM 69.8 °F - 53.6 °F 56% 30.00 in 10.0 mi SW 11.5 mph - N/A   Mostly Cloudy
2:47 PM 66.2 °F - 53.6 °F 64% 30.01 in 10.0 mi SW 9.2 mph - N/A   Mostly Cloudy
3:47 PM 60.8 °F - 57.2 °F 88% 30.03 in 7.0 mi SW 6.9 mph - N/A Rain Light Rain
4:47 PM 60.8 °F - 57.2 °F 88% 30.03 in 3.0 mi WSW 5.8 mph - N/A Rain Rain
5:47 PM 59.0 °F - 57.2 °F 94% 30.03 in 7.0 mi SW 5.8 mph - N/A   Overcast
6:47 PM 59.0 °F - 55.4 °F 88% 30.03 in 10.0 mi SW 4.6 mph - N/A   Mostly Cloudy
7:47 PM 57.2 °F - 55.4 °F 94% 30.05 in 10.0 mi WNW 4.6 mph - N/A   Scattered Clouds
8:15 PM 55.4 °F - 55.4 °F 100% 30.05 in 7.0 mi WNW 4.6 mph - N/A   Mostly Cloudy
8:35 PM 55.4 °F - 55.4 °F 100% 30.05 in 5.0 mi WNW 4.6 mph - N/A   Mostly Cloudy
8:47 PM 57.2 °F - 55.4 °F 94% 30.06 in 10.0 mi Calm Calm - N/A   Mostly Cloudy
8:55 PM 55.4 °F - 53.6 °F 94% 30.06 in 3.0 mi West 3.5 mph - N/A   Mostly Cloudy
9:15 PM 55.4 °F - 55.4 °F 100% 30.07 in 5.0 mi WNW 3.5 mph - N/A   Overcast
9:35 PM 55.4 °F - 55.4 °F 100% 30.07 in 3.0 mi West 3.5 mph - N/A   Overcast
9:55 PM 55.4 °F - 55.4 °F 100% 30.06 in 2.5 mi WSW 3.5 mph - N/A   Mostly Cloudy
10:15 PM 55.4 °F - 55.4 °F 100% 30.06 in 2.5 mi Calm Calm - N/A   Scattered Clouds
10:55 PM 55.4 °F - 55.4 °F 100% 30.07 in 3.0 mi Calm Calm - N/A   Mostly Cloudy
11:15 PM 55.4 °F - 55.4 °F 100% 30.08 in 2.5 mi Calm Calm - N/A   Overcast
11:55 PM 55.4 °F - 55.4 °F 100% 30.07 in 3.0 mi Calm Calm - N/A   Mostly Cloudy